sat.trackr.live / text

‹ back to catalog

STARLINK-1997

NORAD 47592 · 2021-009AW

PAYLOAD ACTIVE UNKNOWN

§ Identity

Operator
Country
US
Launch date
2021-02-04
Launch site
AFETR
Launch vehicle
Mass (kg)
RCS (m²)

Purposes: comms

External: N2YO · Heavens-Above · Gunter

§ Orbital elements

Epoch: 2026-07-03T07:50:57.214176Z

Period
88.05 min
Inclination
53.0123°
Eccentricity
0.0004226
Mean motion
16.35505785 rev/d
Perigee alt
175.0 km
Apogee alt
180.6 km
Semi-major
6,555.9 km
B*
6.5662e-4
RAAN
137.6159°
Arg perigee
240.7525°
Mean anomaly
119.3097°
Rev number
29,940

§ Raw data

STARLINK-19971 47592U 21009AW  26184.32705109  .05374508  12213-4  65662-3 0  99902 47592  53.0123 137.6159 0004226 240.7525 119.3097 16.35505785299403

JSON: /api/v1/satellites/47592 · /tle

For live sub-satellite position, see the globe view (requires WebGL).

§ Visibility from observer

Set your observer location to see the next 7 days of passes ≥ 10°. The values pass through the URL so the page stays shareable.

No JS? Fill the form by hand. The geolocation button needs JavaScript.